Location: Bismarck
(46.7731°N, 100.8200°W)
Time: 22:04:47
(UTC-06:00)

ISS - All Passes

Search period start: 27 November 2014 00:00
Search period end: 07 December 2014 00:00
Orbit: 407 x 417 km, 51.6° (Epoch: 27 November)

Date Brightness Start Highest point End Pass type
(mag) Time Alt. Az. Time Alt. Az. Time Alt. Az.
27 Nov - 00:52:36 10° WSW 00:55:54 83° NNW 00:59:12 10° ENE night (unlit)
27 Nov - 02:29:46 10° WNW 02:32:50 34° N 02:35:54 10° ENE night (unlit)
27 Nov - 04:06:45 10° WNW 04:09:56 43° NNE 04:13:07 10° E visible
27 Nov - 05:43:26 10° WNW 05:46:38 49° SSW 05:49:50 10° SE visible
27 Nov - 22:29:07 10° SSE 22:30:01 11° SE 22:30:54 10° ESE night (unlit)
28 Nov - 00:02:50 10° SW 00:06:06 65° SSE 00:09:22 10° ENE night (unlit)
28 Nov - 01:39:46 10° W 01:42:53 39° NNW 01:46:01 10° ENE night (unlit)
28 Nov - 03:16:54 10° WNW 03:20:00 37° N 03:23:06 10° ENE night (unlit)
28 Nov - 04:53:34 10° WNW 04:56:52 78° SSW 05:00:09 10° ESE visible
28 Nov - 06:31:18 10° WSW 06:33:02 14° SW 06:34:47 10° SSW visible
28 Nov - 23:13:13 10° SW 23:16:19 40° SE 23:19:26 10° ENE night (unlit)
29 Nov - 00:49:44 10° W 00:52:56 48° NNW 00:56:09 10° ENE night (unlit)
29 Nov - 02:26:58 10° WNW 02:30:01 34° N 02:33:04 10° ENE night (unlit)
29 Nov - 04:03:42 10° WNW 04:07:00 71° NNE 04:10:17 10° ESE night (unlit)
29 Nov - 05:40:45 10° W 05:43:23 22° SW 05:46:00 10° SSE visible
29 Nov - 22:23:49 10° SSW 22:26:34 25° SE 22:29:19 10° E night (unlit)
29 Nov - 23:59:43 10° WSW 00:03:00 65° NNW 00:06:16 10° ENE night (unlit)
30 Nov - 01:36:57 10° WNW 01:40:00 33° N 01:43:02 10° ENE night (unlit)
30 Nov - 03:13:50 10° WNW 03:17:03 51° NNE 03:20:17 10° E night (unlit)
30 Nov - 04:50:35 10° WNW 04:53:38 35° SW 04:56:41 10° SSE visible
30 Nov - 21:34:50 10° S 21:36:50 15° SE 21:38:51 10° E night (unlit)
30 Nov - 23:09:46 10° WSW 23:13:03 86° SSE 23:16:22 10° ENE night (unlit)
01 Dec - 00:46:52 10° WNW 00:49:56 36° N 00:53:01 10° ENE night (unlit)
01 Dec - 02:23:54 10° WNW 02:27:03 40° NNE 02:30:11 10° E night (unlit)
01 Dec - 04:00:33 10° WNW 04:03:48 58° SSW 04:07:02 10° SE night (unlit)
01 Dec - 22:19:55 10° SW 22:23:09 55° SSE 22:26:23 10° ENE night (unlit)
01 Dec - 23:56:43 10° W 23:59:52 41° NNW 00:03:02 10° ENE night (unlit)
02 Dec - 01:33:54 10° WNW 01:36:58 35° N 01:40:03 10° ENE night (unlit)
02 Dec - 03:10:34 10° WNW 03:13:52 90° NNE 03:17:10 10° ESE night (unlit)
02 Dec - 04:47:59 10° W 04:50:07 16° SW 04:52:14 10° S night (unlit)
02 Dec - 21:30:15 10° SSW 21:33:15 33° SE 21:36:16 10° ENE night (unlit)
02 Dec - 23:06:34 10° W 23:09:48 53° NNW 23:13:03 10° ENE night (unlit)
03 Dec - 00:43:49 10° WNW 00:46:51 33° N 00:49:53 10° ENE night (unlit)
03 Dec - 02:20:35 10° WNW 02:23:52 62° NNE 02:27:07 10° ESE night (unlit)
03 Dec - 03:57:30 10° W 04:00:18 26° SW 04:03:06 10° SSE night (unlit)
03 Dec - 20:40:51 10° S 20:43:24 21° SE 20:45:56 10° E night (unlit)
03 Dec - 22:16:27 10° WSW 22:19:45 74° NNW 22:23:02 10° ENE night (unlit)
03 Dec - 23:53:39 10° WNW 23:56:42 34° N 23:59:45 10° ENE night (unlit)
04 Dec - 01:30:34 10° WNW 01:33:46 46° NNE 01:36:58 10° E night (unlit)
04 Dec - 03:07:16 10° WNW 03:10:24 42° SW 03:13:32 10° SE night (unlit)
04 Dec - 19:52:02 10° SSE 19:53:34 13° SE 19:55:06 10° ESE night (unlit)
04 Dec - 21:26:25 10° SW 21:29:42 74° SSE 21:32:59 10° ENE night (unlit)
04 Dec - 23:03:25 10° W 23:06:31 37° N 23:09:37 10° ENE night (unlit)
05 Dec - 00:40:30 10° WNW 00:43:37 38° N 00:46:44 10° E night (unlit)
05 Dec - 02:17:08 10° WNW 02:20:25 69° SSW 02:23:41 10° SE night (unlit)
05 Dec - 03:55:16 10° WSW 03:56:31 12° SW 03:57:46 10° SSW night (unlit)
05 Dec - 20:36:30 10° SW 20:39:40 45° SE 20:42:51 10° ENE night (unlit)
05 Dec - 22:13:09 10° W 22:16:20 45° NNW 22:19:31 10° ENE night (unlit)
05 Dec - 23:50:21 10° WNW 23:53:25 34° N 23:56:28 10° ENE night (unlit)
06 Dec - 01:27:02 10° WNW 01:30:21 78° NNE 01:33:38 10° ESE night (unlit)
06 Dec - 03:04:13 10° W 03:06:39 19° SW 03:09:05 10° S night (unlit)
06 Dec - 19:46:48 10° SSW 19:49:41 28° SE 19:52:33 10° E visible
06 Dec - 21:22:53 10° WSW 21:26:09 60° NNW 21:29:25 10° ENE night (unlit)
06 Dec - 23:00:07 10° WNW 23:03:09 33° N 23:06:11 10° ENE night (unlit)
